Location: Killam
(52.7910°N, 111.8608°W)
Time: 05:55:44
(UTC+00:00)

A-11 Canister half - Pass Details

Date: 22 February 2026
Orbit: 1524 x 1683 km, 47.3° (Epoch: 13 March)

Event Time Altitude Azimuth Distance (km) Brightness Sun altitude
Rises 03:59:54 0° 281° (W) 4,686 12.7 -28.7°
Reaches altitude 10° 04:03:06 10° 275° (W) 3,696 11.8 -29.1°
Maximum altitude 04:11:42 45° 207° (SSW) 1,993 9.5 -30.3°
Enters shadow 04:13:52 39° 176° (S) 2,145 9.4 -30.6°
Drops below altitude 10° 04:20:23 10° 139° (SE) 3,719 - -31.5°
Sets 04:23:37 0° 134° (SE) 4,717 - -31.9°
